Change the Weather History Date:

Monday, November 17, 2014

  Actual Average Record
Temperature  
Mean Temperature 12 °F 39 °F  
Max Temperature 18 °F 48 °F 71 °F (1969)
Min Temperature 6 °F 30 °F 6 °F (2014)
Degree Days  
Heating Degree Days 53 26  
Month to date heating degree days 495 376  
Since 1 July heating degree days 921 860  
Cooling Degree Days 0 0  
Month to date cooling degree days 0 0  
Year to date cooling degree days 907 946  
Moisture  
Dew Point 5 °F    
Average Humidity 74    
Maximum Humidity 92    
Minimum Humidity 56    
Precipitation  
Precipitation T in 0.05 in 0.79 in (1971)
Month to date precipitation 0.20 1.51  
Sea Level Pressure  
Sea Level Pressure 30.20 in    
Wind  
Wind Speed 18 mph (WNW)    
Max Wind Speed 30 mph    
Max Gust Speed 35 mph    
Visibility 10 miles    
Events      
T = Trace of Precipitation, MM = Missing Value Source: NWS Daily Summary

Daily Weather History Graph

Daily Weather History Graph

Search for Another Location

Airport or City:

Trip Planner

Search our weather history database for the weather conditions in past years. The results will help you decide how hot, cold, wet, or windy it might be!

Date:

Astronomy

Nov. 17, 2014 Rise Set
Actual Time 7:04 AM CST 4:56 PM CST
Civil Twilight 6:35 AM CST 5:25 PM CST
Nautical Twilight 6:01 AM CST 5:58 PM CST
Astronomical Twilight 5:29 AM CST 6:31 PM CST
Moon 2:05 AM CST (11/17) 2:21 PM CST (11/17)
Length of Visible Light 10h 50m
Length of Day
9h 51m
Waning Crescent, 22% of the Moon is Illuminated
Nov 17
Waning Crescent
Nov 22
New
Nov 29
First Quarter
Dec 6
Full
Dec 14
Last Quarter

Hourly Weather History & Observations

Time (CST) Temp. Windchill Dew Point Humidity Pressure Visibility Wind Dir Wind Speed Gust Speed Precip Events Conditions
12:53 AM 12.9 °F -0.9 °F 7.0 °F 77% 30.12 in 10.0 mi WNW 11.5 mph - N/A   Clear
1:53 AM 10.0 °F -1.9 °F 6.1 °F 84% 30.12 in 10.0 mi WNW 8.1 mph - N/A   Clear
2:53 AM 10.9 °F -2.6 °F 8.1 °F 88% 30.12 in 10.0 mi West 10.4 mph - N/A   Clear
3:53 AM 12.9 °F -1.6 °F 9.0 °F 84% 30.11 in 10.0 mi WNW 12.7 mph - N/A   Clear
4:53 AM 12.9 °F -0.9 °F 8.1 °F 81% 30.12 in 10.0 mi WNW 11.5 mph - N/A   Clear
5:53 AM 12.9 °F -2.8 °F 8.1 °F 81% 30.13 in 10.0 mi WNW 15.0 mph - N/A   Scattered Clouds
6:53 AM 15.1 °F -0.6 °F 9.0 °F 77% 30.15 in 9.0 mi NW 16.1 mph 27.6 mph 0.00 in   Overcast
7:53 AM 14.0 °F -4.7 °F 7.0 °F 74% 30.18 in 10.0 mi NW 23.0 mph 32.2 mph N/A   Mostly Cloudy
8:34 AM 12.9 °F -3.4 °F 6.1 °F 74% 30.12 in 10.0 mi NW 16.1 mph 26.5 mph N/A   Mostly Cloudy
8:44 AM 14.0 °F -3.9 °F 6.1 °F 71% 30.13 in 10.0 mi NW 20.7 mph 25.3 mph N/A   Mostly Cloudy
8:53 AM 14.0 °F -4.3 °F 7.0 °F 74% 30.19 in 10.0 mi NW 21.9 mph 27.6 mph N/A   Mostly Cloudy
9:26 AM 14.0 °F -4.7 °F 6.1 °F 71% 30.13 in 10.0 mi NW 23.0 mph 29.9 mph N/A   Scattered Clouds
9:53 AM 14.0 °F -5.1 °F 5.0 °F 67% 30.21 in 10.0 mi NW 24.2 mph 29.9 mph N/A   Partly Cloudy
10:53 AM 15.1 °F -3.3 °F 5.0 °F 64% 30.22 in 10.0 mi WNW 23.0 mph 28.8 mph N/A   Clear
11:53 AM 16.0 °F -2.8 °F 5.0 °F 62% 30.21 in 10.0 mi WNW 25.3 mph 31.1 mph N/A   Partly Cloudy
12:53 PM 17.1 °F -2.4 °F 5.0 °F 59% 30.20 in 10.0 mi WNW 28.8 mph 32.2 mph N/A   Partly Cloudy
1:53 PM 16.0 °F -3.5 °F 3.9 °F 59% 30.21 in 10.0 mi WNW 27.6 mph 34.5 mph N/A   Mostly Cloudy
2:53 PM 16.0 °F -2.5 °F 3.0 °F 57% 30.22 in 10.0 mi WNW 24.2 mph 31.1 mph N/A   Partly Cloudy
3:53 PM 15.1 °F -4.4 °F 3.0 °F 59% 30.24 in 10.0 mi WNW 26.5 mph 31.1 mph N/A   Clear
4:53 PM 14.0 °F -3.4 °F 3.0 °F 62% 30.25 in 10.0 mi West 19.6 mph 25.3 mph N/A   Clear
5:53 PM 12.0 °F -3.4 °F 1.9 °F 64% 30.26 in 10.0 mi WNW 13.8 mph - N/A   Clear
6:53 PM 12.0 °F -4.5 °F 1.9 °F 64% 30.26 in 10.0 mi WNW 16.1 mph - N/A   Clear
7:53 PM 12.0 °F -5.6 °F 1.9 °F 64% 30.27 in 10.0 mi WNW 18.4 mph - N/A   Clear
8:53 PM 10.9 °F -6.5 °F 1.9 °F 67% 30.28 in 10.0 mi West 17.3 mph - N/A   Clear
9:53 PM 9.0 °F -6.6 °F 1.0 °F 70% 30.29 in 10.0 mi West 12.7 mph - N/A   Clear
10:53 PM 7.0 °F -9.1 °F -0.0 °F 73% 30.28 in 10.0 mi West 12.7 mph - N/A   Clear
11:53 PM 7.0 °F -8.3 °F -0.0 °F 73% 30.27 in 10.0 mi West 11.5 mph - N/A   Clear